Temp
88 85 79 80 80 79 79 79 79 79 78 79 79 78 78 78 78 78 77 77 77 77 77 77 77 76 78 78 76 77 76 76 75 74 73 73 74 75 75 76 76 80 77
91 87 78 79 79 79 79 79 78 78 78 78 78 78 78 78 78 78 78 77 77 77 77 77 77 76 76 75 76 76 76 75 75 73 73 72 73 74 76 75 75 78 77
91 89 84 79 79 79 79 78 77 77 77 78 78 78 78 77 77 78 78 77 77 76 76 76 76 76 75 75 75 76 76 76 74 73 73 79 81 75 75 75 76 76 77
92 89 88 78 79 79 78 78 77 77 78 78 78 78 79 78 78 79 78 77 76 76 75 75 75 75 75 75 75 76 76 75 74 73 79 82 82 75 75 75 76 77 77
92 91 87 78 78 78 78 77 77 77 77 77 78 78 78 79 79 79 78 77 76 75 75 75 75 75 75 74 75 75 75 75 74 74 81 80 78 76 75 75 76 76 76
92 93 79 78 78 78 77 77 77 77 77 77 78 78 78 78 79 78 78 77 75 75 75 75 74 75 74 74 75 75 75 74 73 81 81 80 79 75 74 75 75 76 76
91 91 84 78 78 77 77 77 77 77 77 77 78 77 77 77 77 76 77 76 75 75 75 75 75 75 75 74 75 75 74 73 77 81 81 80 74 74 75 76 76 76 76
91 90 86 77 77 77 77 77 77 77 77 77 77 77 77 76 76 77 77 76 75 75 75 75 74 74 74 74 74 74 73 71 78 79 78 79 73 74 75 77 76 76 76
91 89 88 84 78 75 75 76 76 76 76 76 76 76 76 74 75 76 76 75 75 74 74 74 74 74 74 73 72 71 71 71 76 81 80 80 72 74 76 76 76 76 77
89 89 89 87 83 81 80 74 74 75 75 75 75 74 72 72 72 74 74 74 74 73 73 73 72 72 72 71 70 70 70 71 79 80 81 73 72 75 76 76 76 76 76
87 88 89 89 86 84 83 78 74 73 73 73 73 71 71 80 78 76 70 71 72 72 72 71 71 71 70 70 70 70 69 80 80 80 79 71 73 75 76 75 74 74 75
85 87 88 89 88 85 83 81 81 81 78 79 80 78 81 82 81 80 72 70 71 71 70 71 71 72 72 79 78 73 79 78 79 78 73 69 72 76 74 73 73 73 73
88 88 88 88 88 87 82 79 83 84 80 83 83 82 82 81 78 78 77 75 73 69 76 73 76 78 76 76 76 78 76 76 77 77 68 68 73 74 73 72 72 71 71
88 88 87 88 87 86 85 81 83 84 84 84 82 82 81 80 79 80 80 75 77 78 77 77 77 76 76 76 76 76 76 75 76 75 65 66 69 71 70 71 70 69 70
87 88 88 87 85 84 85 83 81 83 85 83 82 83 83 81 80 81 79 78 77 78 77 76 76 76 75 75 75 74 74 75 75 74 68 63 66 67 68 68 68 68 68
88 88 88 87 87 85 84 83 84 83 85 84 78 81 83 82 81 79 76 75 76 76 76 75 74 73 73 73 72 73 72 73 73 72 72 64 63 64 65 65 65 66 66
90 90 89 87 87 84 83 84 83 83 86 82 77 82 81 80 77 75 73 73 73 75 75 74 73 72 71 71 71 71 71 71 71 71 70 69 62 61 61 62 63 63 64
89 89 90 89 87 85 80 85 84 83 85 77 78 79 79 79 76 72 70 69 74 73 72 70 69 69 68 68 68 69 69 69 69 69 68 68 66 67 61 60 60 61 61
90 88 88 87 86 86 83 84 83 79 77 76 78 78 77 72 70 68 66 68 73 70 70 69 67 66 65 64 65 67 67 67 67 68 67 66 65 64 63 63 61 61 61
89 88 88 87 85 86 86 84 79 74 73 74 76 73 70 68 67 64 67 71 71 68 67 67 66 65 63 62 65 66 65 66 66 66 66 67 66 63 63 61 61 62 62
87 87 86 86 84 85 83 79 73 69 67 70 70 69 68 66 66 67 70 70 69 67 65 66 64 62 60 61 62 63 64 65 65 65 66 65 65 63 63 62 61 60 60
83 84 84 85 84 83 82 76 72 69 67 65 65 63 64 65 65 66 69 67 66 64 63 63 62 60 60 59 56 58 57 60 63 64 65 64 63 62 61 61 59 59 58
81 82 83 84 83 81 79 72 66 61 58 58 59 60 59 61 63 65 67 66 65 63 60 60 60 58 57 58 58 56 53 52 54 62 61 62 61 61 60 59 58 58 57
81 80 82 82 80 79 77 70 64 62 57 58 58 59 59 61 62 64 66 65 63 62 60 59 60 58 58 54 57 58 57 55 49 48 58 59 61 58 58 58 57 56 56
80 78 79 79 76 77 74 69 66 66 64 62 59 57 57 59 60 62 65 63 62 61 60 59 58 57 57 56 54 53 55 54 54 49 45 51 56 58 57 57 56 56 55
77 77 75 76 73 74 71 69 67 67 62 56 55 54 55 57 58 62 63 61 61 59 58 57 57 56 56 55 55 54 52 50 50 49 47 47 47 52 55 55 54 53 54
MSLP
1007.45 1008.67 1009.65 1010.08 1010.54 1011.00 1011.35 1011.65 1011.78 1012.05 1012.17 1012.14 1012.23 1012.57 1012.84 1013.06 1013.34 1013.55 1013.77 1013.88 1013.96 1014.01 1014.03 1014.00 1014.04 1014.12 1013.95 1014.00 1014.16 1014.39 1014.69 1014.87 1014.96 1015.05 1015.04 1015.03 1014.93 1014.88 1014.83 1014.78 1014.68 1014.33 1014.65
1007.17 1008.38 1009.50 1010.13 1010.60 1011.12 1011.51 1011.77 1012.11 1012.29 1012.48 1012.53 1012.50 1012.57 1012.90 1013.14 1013.39 1013.68 1013.90 1014.05 1014.15 1014.26 1014.21 1014.24 1014.36 1014.49 1014.41 1014.54 1014.57 1014.66 1014.87 1015.01 1015.05 1015.15 1015.10 1015.07 1015.01 1014.92 1014.85 1014.92 1014.96 1014.70 1014.75
1007.11 1008.17 1009.40 1010.03 1010.53 1011.08 1011.58 1011.98 1012.25 1012.52 1012.63 1012.74 1012.79 1012.82 1012.98 1013.34 1013.62 1013.77 1013.99 1014.21 1014.39 1014.45 1014.46 1014.55 1014.70 1014.80 1014.80 1014.80 1014.80 1014.84 1014.97 1015.10 1015.17 1015.18 1014.96 1014.42 1014.26 1014.83 1014.94 1014.90 1014.93 1014.86 1014.87
1007.15 1008.18 1009.00 1010.26 1010.77 1011.19 1011.67 1012.04 1012.34 1012.57 1012.81 1012.88 1013.06 1013.16 1013.27 1013.42 1013.70 1013.86 1014.16 1014.42 1014.57 1014.66 1014.68 1014.77 1014.91 1015.03 1015.07 1015.08 1015.05 1014.99 1015.03 1015.15 1015.23 1015.04 1014.36 1014.21 1014.30 1014.77 1014.96 1014.95 1014.84 1014.74 1014.76
1007.34 1007.95 1008.83 1010.22 1010.87 1011.34 1011.87 1012.25 1012.42 1012.65 1012.85 1013.14 1013.25 1013.42 1013.52 1013.56 1013.72 1013.98 1014.24 1014.43 1014.66 1014.80 1014.91 1015.02 1015.06 1015.15 1015.21 1015.29 1015.24 1015.14 1015.07 1015.06 1015.16 1014.90 1014.24 1014.37 1014.73 1014.86 1014.99 1014.94 1014.79 1014.79 1014.67
1007.38 1007.74 1009.63 1010.37 1011.00 1011.47 1011.92 1012.43 1012.69 1012.81 1012.99 1013.10 1013.34 1013.59 1013.79 1013.84 1013.93 1014.07 1014.26 1014.55 1014.73 1014.94 1015.06 1015.19 1015.19 1015.20 1015.24 1015.28 1015.33 1015.23 1015.17 1015.21 1015.03 1014.22 1014.26 1014.32 1014.43 1014.88 1014.98 1014.91 1014.83 1014.82 1014.66
1007.48 1007.94 1009.52 1010.42 1011.12 1011.63 1011.99 1012.43 1012.79 1012.99 1013.17 1013.35 1013.42 1013.68 1013.92 1014.06 1014.11 1014.17 1014.25 1014.51 1014.94 1015.08 1015.18 1015.19 1015.16 1015.21 1015.26 1015.30 1015.23 1015.31 1015.30 1015.23 1014.92 1014.07 1014.04 1014.18 1014.67 1014.90 1014.92 1014.70 1014.60 1014.66 1014.45
1007.52 1008.09 1009.37 1010.59 1011.15 1011.74 1012.24 1012.51 1012.79 1013.05 1013.26 1013.46 1013.66 1013.79 1014.02 1014.23 1014.13 1013.85 1014.09 1014.61 1014.99 1015.24 1015.30 1015.27 1015.22 1015.31 1015.30 1015.30 1015.28 1015.31 1015.41 1015.31 1014.61 1014.21 1014.19 1014.20 1014.69 1014.90 1014.85 1014.60 1014.46 1014.52 1014.30
1007.65 1008.26 1008.92 1010.21 1011.10 1011.61 1012.17 1012.63 1012.86 1013.09 1013.33 1013.47 1013.71 1013.90 1014.07 1014.35 1014.30 1014.09 1014.41 1014.75 1015.01 1015.23 1015.36 1015.38 1015.29 1015.33 1015.32 1015.40 1015.47 1015.40 1015.31 1015.21 1014.79 1014.05 1014.27 1014.23 1014.92 1014.93 1014.67 1014.56 1014.54 1014.42 1014.35
1007.77 1008.26 1008.73 1009.41 1010.58 1011.14 1011.88 1012.55 1012.84 1013.09 1013.38 1013.54 1013.71 1013.93 1014.23 1014.44 1014.53 1014.49 1014.58 1014.90 1015.13 1015.27 1015.37 1015.46 1015.52 1015.50 1015.49 1015.53 1015.58 1015.50 1015.24 1015.05 1014.51 1014.32 1014.19 1015.01 1015.13 1015.07 1014.76 1014.65 1014.59 1014.44 1014.44
1007.84 1008.24 1008.53 1008.98 1009.76 1010.34 1011.11 1012.10 1012.67 1013.04 1013.30 1013.61 1013.74 1013.92 1014.11 1013.78 1014.13 1014.48 1014.82 1015.04 1015.16 1015.34 1015.51 1015.64 1015.65 1015.63 1015.60 1015.54 1015.52 1015.46 1015.11 1014.51 1014.59 1014.55 1014.58 1015.39 1015.39 1015.02 1014.78 1014.75 1014.72 1014.78 1014.67
1007.63 1008.00 1008.45 1008.69 1009.12 1009.89 1010.54 1011.46 1011.90 1012.42 1013.05 1013.19 1013.21 1013.58 1013.30 1013.26 1013.65 1013.80 1014.72 1015.04 1015.22 1015.44 1015.66 1015.71 1015.72 1015.57 1015.39 1014.92 1014.98 1015.09 1014.78 1014.95 1014.80 1014.88 1015.35 1015.81 1015.52 1015.07 1015.01 1015.18 1015.03 1015.04 1015.05
1006.99 1007.57 1008.11 1008.52 1008.81 1009.33 1010.19 1011.04 1011.18 1011.25 1012.25 1012.23 1012.51 1012.78 1013.03 1013.28 1013.95 1014.10 1014.34 1014.76 1014.99 1015.31 1015.05 1015.48 1015.34 1015.34 1015.50 1015.46 1015.28 1015.01 1015.25 1015.22 1015.01 1014.97 1016.00 1016.09 1015.46 1015.38 1015.46 1015.55 1015.38 1015.51 1015.38
1006.43 1007.03 1007.81 1008.28 1008.76 1009.19 1009.91 1010.41 1010.64 1010.72 1011.10 1011.65 1012.21 1012.57 1012.91 1013.19 1013.52 1013.56 1013.55 1014.20 1014.57 1014.83 1014.98 1015.17 1015.26 1015.52 1015.58 1015.53 1015.45 1015.31 1015.31 1015.34 1015.30 1015.36 1016.33 1016.47 1015.99 1016.03 1015.96 1015.86 1015.95 1015.95 1015.73
1006.12 1006.65 1007.19 1007.95 1008.54 1009.27 1009.44 1010.07 1010.39 1010.71 1010.35 1011.37 1011.75 1012.17 1012.48 1012.81 1013.20 1013.16 1013.67 1014.33 1014.82 1014.87 1015.10 1015.22 1015.44 1015.46 1015.57 1015.68 1015.55 1015.47 1015.45 1015.41 1015.48 1015.57 1016.31 1016.90 1016.49 1016.61 1016.53 1016.32 1016.40 1016.41 1016.19
1005.78 1006.20 1006.82 1007.44 1008.09 1008.81 1009.14 1009.54 1009.90 1010.31 1010.15 1010.83 1011.60 1011.95 1012.16 1012.43 1012.72 1013.27 1014.19 1014.80 1014.81 1014.96 1015.31 1015.58 1015.75 1015.84 1015.72 1015.71 1015.76 1015.76 1015.67 1015.68 1015.77 1015.88 1015.90 1017.08 1017.04 1017.03 1017.01 1016.78 1016.85 1016.76 1016.61
1005.13 1005.51 1006.01 1006.87 1007.60 1008.26 1008.83 1009.00 1009.60 1009.66 1009.86 1010.67 1011.53 1011.71 1012.07 1012.34 1013.18 1014.02 1014.64 1014.95 1015.04 1015.31 1015.58 1015.80 1015.89 1016.03 1015.98 1015.85 1015.81 1015.84 1015.90 1015.90 1016.06 1016.01 1016.20 1016.39 1017.21 1017.27 1017.37 1017.27 1017.19 1017.03 1016.88
1004.78 1004.94 1005.40 1006.16 1006.92 1007.74 1008.87 1008.59 1008.93 1009.11 1009.50 1010.69 1011.46 1011.72 1012.09 1012.68 1013.46 1014.34 1014.92 1015.12 1015.18 1015.60 1015.82 1016.05 1016.26 1016.24 1016.20 1016.11 1016.02 1015.84 1015.96 1016.02 1016.17 1016.19 1016.41 1016.55 1016.90 1016.78 1017.36 1017.35 1017.43 1017.32 1017.18
1004.22 1004.68 1004.97 1005.83 1006.40 1006.72 1007.76 1008.17 1008.75 1009.39 1009.90 1010.54 1011.11 1011.63 1012.45 1013.55 1014.05 1014.46 1015.07 1015.20 1015.37 1015.77 1016.05 1016.30 1016.55 1016.64 1016.51 1016.51 1016.26 1015.99 1015.99 1016.09 1016.24 1016.36 1016.35 1016.80 1017.10 1017.14 1017.21 1017.19 1017.26 1017.11 1017.12
1003.65 1004.12 1004.59 1005.13 1005.93 1006.33 1006.83 1007.61 1008.64 1009.48 1010.13 1010.68 1011.24 1012.24 1013.17 1013.83 1014.36 1014.65 1014.99 1015.15 1015.51 1015.97 1016.30 1016.57 1016.71 1016.86 1016.98 1016.85 1016.41 1015.99 1016.16 1016.16 1016.25 1016.40 1016.35 1016.62 1016.84 1017.19 1017.25 1017.35 1017.23 1016.95 1016.86
1003.12 1003.37 1003.91 1004.24 1005.00 1005.50 1006.12 1006.99 1008.36 1009.41 1010.54 1011.35 1012.16 1012.55 1013.27 1013.87 1014.30 1014.47 1014.73 1015.33 1015.62 1016.10 1016.57 1016.72 1016.86 1016.99 1017.21 1017.09 1016.43 1016.12 1015.96 1016.25 1016.24 1016.34 1016.30 1016.47 1016.56 1017.00 1017.10 1017.12 1017.12 1017.04 1016.81
1002.70 1003.06 1003.48 1003.70 1004.35 1004.96 1005.54 1007.04 1008.16 1009.55 1010.90 1011.92 1012.73 1012.95 1013.44 1013.89 1014.31 1014.61 1014.99 1015.47 1015.94 1016.46 1016.84 1017.11 1017.11 1017.22 1017.46 1017.61 1017.35 1016.74 1016.12 1016.02 1016.06 1016.21 1016.29 1016.45 1016.75 1016.84 1016.93 1017.06 1017.15 1017.06 1016.88
1002.10 1002.39 1002.78 1003.18 1003.68 1004.54 1005.57 1007.23 1008.86 1010.43 1011.55 1012.35 1012.72 1013.41 1013.67 1014.01 1014.45 1014.82 1015.20 1015.63 1016.15 1016.61 1017.12 1017.42 1017.57 1017.63 1017.57 1017.90 1017.99 1017.61 1016.97 1016.63 1016.63 1016.00 1016.39 1016.58 1016.75 1016.69 1016.94 1016.98 1016.99 1016.89 1016.79
1001.21 1001.75 1002.37 1002.93 1003.48 1004.35 1005.42 1006.81 1008.06 1008.93 1010.23 1011.34 1012.15 1013.18 1013.75 1014.20 1014.63 1015.04 1015.52 1015.84 1016.36 1016.90 1017.33 1017.64 1017.90 1018.06 1017.99 1018.05 1018.07 1018.08 1018.12 1018.11 1017.74 1017.02 1016.52 1016.67 1016.60 1016.84 1016.73 1016.58 1016.60 1016.68 1016.59
1000.57 1001.05 1002.02 1002.89 1003.53 1004.13 1005.20 1006.67 1007.84 1008.89 1009.83 1010.97 1012.28 1013.14 1013.86 1014.46 1014.79 1015.32 1015.74 1016.21 1016.59 1017.07 1017.49 1017.75 1018.04 1018.25 1018.51 1018.39 1018.40 1018.45 1018.20 1018.19 1018.11 1018.05 1017.23 1016.87 1016.85 1016.66 1016.59 1016.36 1016.44 1016.34 1016.33
1000.39 1000.55 1001.46 1002.61 1003.44 1003.97 1005.40 1006.59 1007.27 1008.06 1009.26 1010.91 1012.30 1013.09 1013.94 1014.66 1015.01 1015.43 1015.89 1016.41 1016.82 1017.29 1017.69 1017.94 1018.20 1018.39 1018.72 1018.83 1018.79 1018.68 1018.56 1018.44 1018.20 1018.20 1017.81 1017.37 1017.08 1016.67 1016.39 1016.25 1016.00 1016.08 1015.87
Wind_Speed
11 17 15 16 15 14 12 10 9 8 7 7 8 9 10 11 10 8 8 8 9 9 8 8 11 13 5 4 10 9 7 6 7 7 7 5 6 7 7 5 4 8 5
16 19 17 16 16 15 13 12 10 8 6 5 7 9 10 10 10 8 8 8 9 9 9 8 9 9 11 11 10 9 7 6 6 5 5 4 3 6 6 6 7 8 6
15 18 18 16 17 15 13 12 10 8 6 5 7 8 11 11 10 8 8 8 9 9 10 9 9 8 8 8 8 7 6 6 5 5 8 7 2 6 6 6 5 5 6
14 16 16 16 16 15 14 12 11 9 7 7 8 11 10 11 8 8 7 7 8 9 9 9 9 9 8 8 7 6 5 5 3 6 7 6 7 8 5 7 8 6 6
13 15 17 18 16 15 13 11 10 9 8 7 10 9 8 8 8 6 6 5 7 8 8 8 8 8 7 7 6 5 5 1 5 9 4 4 5 9 7 7 8 10 10
13 12 19 18 16 15 14 11 10 10 9 10 8 7 5 3 2 3 4 6 7 6 6 5 5 5 5 5 5 5 7 7 8 5 4 3 3 9 8 7 7 8 9
12 14 15 16 17 15 15 12 11 10 10 9 9 7 5 5 4 3 3 9 6 5 4 3 5 4 4 4 4 4 5 6 7 5 4 6 8 8 8 9 10 9 8
13 11 15 14 17 15 13 12 11 10 9 9 8 6 5 5 6 6 10 10 7 4 3 4 4 4 4 4 5 4 4 6 8 5 2 4 7 6 8 11 10 11 11
12 11 14 14 14 14 14 12 11 10 9 8 7 6 5 6 7 11 11 9 7 4 4 5 5 4 5 5 5 4 3 6 8 6 6 4 11 9 9 9 10 11 11
11 11 12 15 14 13 12 12 10 10 9 8 7 7 8 6 6 8 10 7 6 5 5 6 6 5 5 6 4 3 5 9 7 5 4 8 12 10 9 9 10 9 11
9 11 11 14 13 12 13 12 10 10 10 9 9 8 8 7 8 8 9 8 6 7 6 6 6 4 4 5 4 3 7 4 6 5 4 13 10 8 7 7 10 9 10
12 13 11 12 15 14 9 14 12 11 9 9 9 9 8 6 4 4 7 7 7 7 7 5 3 3 6 3 0 5 4 6 5 4 7 13 11 8 10 10 10 12 12
12 11 13 12 12 13 9 8 7 7 6 8 9 7 5 5 5 5 6 6 6 8 5 6 4 3 4 4 4 4 5 5 4 3 9 11 7 8 10 10 12 12 13
11 13 13 13 11 12 9 7 9 8 9 6 7 8 6 5 6 6 4 4 3 2 3 2 3 3 4 4 5 6 5 4 4 2 10 11 11 11 10 11 12 13 13
12 12 13 13 13 11 11 9 8 9 8 9 7 10 8 7 7 7 5 4 3 2 2 2 2 3 4 5 5 5 6 5 4 2 6 10 11 11 11 11 11 12 12
11 12 13 14 14 14 12 12 10 9 9 7 6 7 9 7 5 5 6 4 4 4 3 3 3 3 4 5 5 5 5 4 3 1 3 6 9 10 10 11 11 11 12
13 13 14 14 14 14 15 12 9 9 9 7 6 10 10 4 8 7 5 4 3 4 4 3 2 3 4 4 5 4 4 4 2 1 0 2 7 7 7 9 10 11 12
13 12 13 10 14 15 13 11 10 8 9 6 6 6 8 8 10 8 6 4 4 4 3 3 3 2 3 4 5 3 3 2 2 1 1 0 2 1 6 7 8 10 11
17 14 13 13 15 16 16 13 10 7 4 7 7 7 9 9 9 8 5 4 6 4 4 2 3 3 4 4 5 3 3 3 3 1 2 1 1 3 4 4 4 8 8
19 15 15 13 15 15 12 11 7 4 4 5 7 7 10 8 10 7 6 6 6 5 4 3 3 3 4 4 5 4 1 2 1 3 3 3 1 2 4 4 5 5 9
20 20 18 16 15 12 10 11 9 8 5 6 6 11 9 9 8 7 6 7 6 5 4 3 3 4 4 6 3 4 3 2 3 4 4 4 3 3 4 4 5 5 5
19 18 18 17 16 13 10 9 8 8 7 6 7 8 8 8 6 5 8 7 7 5 5 4 4 2 3 5 4 3 2 3 3 2 3 3 5 3 4 6 8 8 6
21 18 17 16 15 14 15 10 8 9 6 4 7 8 6 7 5 6 8 8 7 5 4 4 4 4 2 3 5 3 2 2 6 1 3 2 5 4 5 6 7 7 8
19 14 14 14 15 14 16 14 19 12 11 6 9 8 8 7 6 7 9 9 8 5 6 4 3 3 3 2 1 3 2 3 3 4 2 5 6 5 8 6 7 8 9
16 15 12 14 15 15 16 16 13 12 8 9 9 13 9 7 6 7 9 9 8 5 5 5 4 3 2 2 1 2 2 3 5 4 8 5 7 7 7 7 6 7 8
15 12 13 15 17 16 16 17 16 17 16 12 12 10 8 6 6 9 10 8 7 7 6 4 4 3 2 2 3 2 3 3 5 5 7 9 11 8 7 7 7 6 5
Wind_Direction
147 141 156 154 155 150 148 140 131 121 117 122 131 135 137 133 123 111 91 67 52 41 35 40 45 28 37 48 102 89 71 51 46 36 25 31 42 19 6 9 341 259 88
145 149 156 155 155 152 150 141 131 125 122 130 140 149 153 144 128 117 93 68 55 43 41 45 49 48 47 60 66 70 61 40 33 21 337 240 113 38 11 359 341 3 10
144 145 159 159 150 151 149 139 131 124 121 136 136 133 121 123 124 116 91 78 61 53 53 54 52 50 46 51 51 43 27 16 15 343 297 275 72 77 8 351 324 314 320
143 143 157 147 148 149 147 143 138 128 120 130 135 126 130 133 134 111 101 95 75 66 64 60 55 48 46 41 39 40 34 28 0 288 280 16 335 91 23 344 345 310 270
148 151 136 149 150 149 146 146 143 136 127 121 129 127 121 104 107 124 129 116 95 80 73 68 57 49 42 33 25 12 353 5 296 281 11 40 336 65 17 345 323 332 345
152 148 134 145 151 146 145 148 145 143 139 143 143 122 87 153 157 150 162 133 113 96 85 70 51 36 28 21 11 5 2 4 317 296 347 94 289 33 357 336 319 311 309
153 135 145 148 148 147 148 152 151 149 146 147 153 124 90 90 58 328 194 140 132 113 92 58 35 27 25 19 23 15 7 335 301 310 343 1 65 25 340 318 312 294 296
155 148 138 151 149 149 152 155 158 160 162 159 160 145 119 69 18 317 157 139 134 114 61 32 24 22 35 29 24 13 348 320 301 282 347 315 64 9 328 320 328 323 316
153 160 150 160 157 149 153 161 164 166 169 174 172 164 136 88 54 90 122 129 126 90 58 32 21 28 44 45 38 19 330 293 292 2 334 34 23 355 329 348 347 341 335
159 169 165 165 168 166 165 163 167 170 170 169 163 143 134 127 113 113 117 109 107 87 65 54 53 62 77 74 50 0 304 277 290 328 337 31 5 336 337 347 347 353 13
172 177 182 176 174 174 170 167 171 181 175 166 159 155 174 208 175 170 91 99 97 88 84 82 77 89 136 139 127 303 290 355 341 6 22 15 343 334 346 20 42 24 32
186 187 186 191 174 171 170 163 179 176 188 199 186 178 213 173 147 122 110 127 116 113 111 113 126 211 235 341 81 225 0 349 336 344 56 8 342 351 58 48 36 47 31
195 194 195 192 188 166 181 165 179 182 173 206 195 177 186 169 157 184 150 167 154 176 171 195 182 31 9 354 351 345 355 331 329 2 47 6 5 49 57 39 47 33 26
196 192 192 195 194 182 185 174 186 206 168 202 196 188 169 183 183 171 170 92 120 127 122 36 28 14 339 343 349 338 338 327 333 359 69 24 44 51 50 50 38 31 26
207 199 191 193 189 208 194 190 184 220 183 182 187 188 186 183 185 185 125 124 125 132 64 50 15 352 347 342 341 337 332 335 333 354 96 42 53 55 50 47 36 28 23
216 204 195 197 196 191 207 195 199 202 189 198 156 202 192 183 179 118 132 139 135 95 68 39 20 354 339 345 336 329 335 335 328 335 86 91 65 60 50 46 31 22 14
216 210 203 197 199 195 211 192 207 207 198 169 167 195 187 161 124 136 134 131 112 90 93 67 30 348 339 343 320 330 332 337 317 152 87 105 139 93 57 38 22 13 6
233 228 208 202 202 191 210 208 209 198 195 145 186 179 162 159 145 142 136 130 124 109 92 64 20 350 350 346 328 330 308 276 271 257 103 56 32 9 133 62 9 353 353
232 223 216 201 207 205 193 212 204 188 175 163 182 166 140 145 144 133 130 138 128 111 90 87 67 19 10 352 313 316 334 278 210 224 181 217 113 335 338 37 344 314 336
237 216 228 193 207 208 196 203 172 154 147 129 147 146 147 143 138 129 144 141 127 118 116 104 84 63 22 349 318 314 324 252 220 235 230 265 239 309 318 318 331 329 327
236 233 224 216 198 197 191 174 164 155 134 142 153 146 142 141 150 145 138 137 122 112 100 88 88 44 32 355 307 347 207 227 244 246 233 271 301 279 296 320 329 330 325
236 229 225 217 199 195 175 171 152 138 151 142 155 122 132 137 139 134 143 132 122 122 106 87 51 92 68 19 352 276 346 177 182 257 257 320 274 317 316 331 327 319 324
231 226 220 214 192 187 167 148 118 108 98 140 137 132 121 117 124 129 137 131 124 115 111 91 72 27 59 84 28 342 322 333 357 241 214 300 305 298 318 316 306 314 321
229 209 225 210 184 187 170 159 166 167 161 160 149 134 123 121 123 130 136 129 124 123 121 111 85 61 327 62 188 49 358 346 316 313 9 310 296 314 292 310 308 311 307
236 204 199 208 183 184 172 169 175 166 146 139 132 133 124 119 124 131 135 128 127 120 118 116 110 72 36 350 15 333 311 250 244 258 291 290 302 305 314 299 279 292 287
236 200 179 195 194 172 175 181 182 165 145 142 149 136 137 143 134 145 139 130 128 126 128 117 105 84 31 353 328 302 298 306 312 300 297 301 300 298 303 307 292 281 276